Time,TemperatureF,DewpointF,PressureIn,WindDirection,WindDirectionDegrees,WindSpeedMPH,WindSpeedGustMPH,Humidity,HourlyPrecipIn,Conditions,Clouds,dailyrainin,SoftwareType,DateUTC
2013-04-03 00:02:00,19.0,16.0,-100.00,SSE,162,4.0,-999.0,85,-99.99,,,-99.99,,2013-04-03 05:02:00,
2013-04-03 00:12:00,19.0,15.0,-100.00,SSE,152,3.0,-999.0,85,-99.99,,,-99.99,,2013-04-03 05:12:00,
2013-04-03 00:22:00,19.0,15.0,-100.00,SE,132,2.0,-999.0,85,-99.99,,,-99.99,,2013-04-03 05:22:00,
2013-04-03 00:32:00,19.0,15.0,-100.00,East,99,2.0,-999.0,85,-99.99,,,-99.99,,2013-04-03 05:32:00,
2013-04-03 00:42:00,18.0,15.0,-100.00,ESE,111,3.0,-999.0,86,-99.99,,,-99.99,,2013-04-03 05:42:00,
2013-04-03 00:52:00,18.0,15.0,-100.00,ESE,108,3.0,-999.0,86,-99.99,,,-99.99,,2013-04-03 05:52:00,
2013-04-03 01:02:00,18.0,15.0,-100.00,ESE,107,4.0,-999.0,88,-99.99,,,-99.99,,2013-04-03 06:02:00,
2013-04-03 01:12:00,17.0,14.0,-100.00,SE,127,5.0,-999.0,88,-99.99,,,-99.99,,2013-04-03 06:12:00,
2013-04-03 01:22:00,16.0,14.0,-100.00,SE,129,5.0,-999.0,90,-99.99,,,-99.99,,2013-04-03 06:22:00,
2013-04-03 01:32:00,17.0,14.0,-100.00,SE,124,5.0,-999.0,90,-99.99,,,-99.99,,2013-04-03 06:32:00,
2013-04-03 01:42:00,16.0,14.0,-100.00,ESE,119,6.0,-999.0,90,-99.99,,,-99.99,,2013-04-03 06:42:00,
2013-04-03 01:52:00,16.0,13.0,-100.00,SE,128,6.0,-999.0,90,-99.99,,,-99.99,,2013-04-03 06:52:00,
2013-04-03 02:02:00,15.0,13.0,-100.00,SE,133,6.0,-999.0,90,-99.99,,,-99.99,,2013-04-03 07:02:00,
2013-04-03 02:12:00,14.0,12.0,-100.00,SSE,148,7.0,-999.0,92,-99.99,,,-99.99,,2013-04-03 07:12:00,
2013-04-03 02:23:00,14.0,13.0,-100.00,SE,134,7.0,-999.0,94,-99.99,,,-99.99,,2013-04-03 07:23:00,
2013-04-03 02:32:00,15.0,13.0,-100.00,SE,133,8.0,-999.0,94,-99.99,,,-99.99,,2013-04-03 07:32:00,
2013-04-03 02:42:00,16.0,15.0,-100.00,ESE,120,8.0,-999.0,95,-99.99,,,-99.99,,2013-04-03 07:42:00,
2013-04-03 02:52:00,17.0,16.0,-100.00,ESE,117,9.0,-999.0,93,-99.99,,,-99.99,,2013-04-03 07:52:00,
2013-04-03 03:03:00,15.0,13.0,-100.00,ESE,113,8.0,-999.0,92,-99.99,,,-99.99,,2013-04-03 08:03:00,
2013-04-03 03:12:00,16.0,13.0,-100.00,SE,133,7.0,-999.0,91,-99.99,,,-99.99,,2013-04-03 08:12:00,
2013-04-03 03:22:00,15.0,13.0,-100.00,SSE,153,9.0,-999.0,91,-99.99,,,-99.99,,2013-04-03 08:22:00,
2013-04-03 03:32:00,14.0,12.0,-100.00,SSE,149,9.0,-999.0,92,-99.99,,,-99.99,,2013-04-03 08:32:00,
2013-04-03 03:42:00,14.0,12.0,-100.00,SSE,161,8.0,-999.0,93,-99.99,,,-99.99,,2013-04-03 08:42:00,
2013-04-03 03:52:00,14.0,12.0,-100.00,SSE,154,11.0,-999.0,93,-99.99,,,-99.99,,2013-04-03 08:52:00,
2013-04-03 04:02:00,14.0,13.0,-100.00,SSE,152,11.0,-999.0,93,-99.99,,,-99.99,,2013-04-03 09:02:00,
2013-04-03 04:12:00,14.0,12.0,-100.00,SSE,150,11.0,-999.0,92,-99.99,,,-99.99,,2013-04-03 09:12:00,
2013-04-03 04:22:00,14.0,12.0,-100.00,SSE,154,10.0,-999.0,92,-99.99,,,-99.99,,2013-04-03 09:22:00,
2013-04-03 04:33:00,14.0,12.0,-100.00,SSE,149,11.0,-999.0,92,-99.99,,,-99.99,,2013-04-03 09:33:00,
2013-04-03 04:43:00,15.0,13.0,-100.00,SE,127,13.0,-999.0,93,-99.99,,,-99.99,,2013-04-03 09:43:00,
2013-04-03 04:53:00,15.0,13.0,-100.00,SE,141,12.0,-999.0,93,-99.99,,,-99.99,,2013-04-03 09:53:00,
2013-04-03 05:03:00,14.0,13.0,-100.00,SE,146,12.0,-999.0,93,-99.99,,,-99.99,,2013-04-03 10:03:00,
2013-04-03 05:12:00,14.0,13.0,-100.00,SE,139,11.0,-999.0,93,-99.99,,,-99.99,,2013-04-03 10:12:00,
2013-04-03 05:22:00,14.0,12.0,-100.00,SSE,154,11.0,-999.0,92,-99.99,,,-99.99,,2013-04-03 10:22:00,
2013-04-03 05:33:00,13.0,12.0,-100.00,SSE,154,10.0,-999.0,92,-99.99,,,-99.99,,2013-04-03 10:33:00,
2013-04-03 05:43:00,14.0,12.0,-100.00,SSE,151,11.0,-999.0,92,-99.99,,,-99.99,,2013-04-03 10:43:00,
2013-04-03 05:52:00,14.0,12.0,-100.00,SE,145,10.0,-999.0,92,-99.99,,,-99.99,,2013-04-03 10:52:00,
2013-04-03 06:02:00,15.0,13.0,-100.00,SE,142,11.0,-999.0,93,-99.99,,,-99.99,,2013-04-03 11:02:00,
2013-04-03 06:12:00,15.0,14.0,-100.00,SE,145,15.0,-999.0,93,-99.99,,,-99.99,,2013-04-03 11:12:00,
2013-04-03 06:22:00,15.0,13.0,-100.00,SE,145,13.0,-999.0,93,-99.99,,,-99.99,,2013-04-03 11:22:00,
2013-04-03 06:32:00,15.0,14.0,-100.00,SE,140,12.0,-999.0,93,-99.99,,,-99.99,,2013-04-03 11:32:00,
2013-04-03 06:42:00,15.0,14.0,-100.00,SE,138,12.0,-999.0,93,-99.99,,,-99.99,,2013-04-03 11:42:00,
2013-04-03 06:52:00,15.0,14.0,-100.00,SE,137,13.0,-999.0,93,-99.99,,,-99.99,,2013-04-03 11:52:00,
2013-04-03 07:02:00,16.0,14.0,-100.00,SE,136,12.0,-999.0,94,-99.99,,,-99.99,,2013-04-03 12:02:00,
2013-04-03 07:13:00,17.0,15.0,-100.00,SE,133,14.0,-999.0,93,-99.99,,,-99.99,,2013-04-03 12:13:00,
2013-04-03 07:22:00,17.0,15.0,-100.00,SE,133,15.0,-999.0,93,-99.99,,,-99.99,,2013-04-03 12:22:00,
2013-04-03 07:32:00,18.0,16.0,-100.00,SE,124,17.0,-999.0,93,-99.99,,,-99.99,,2013-04-03 12:32:00,
2013-04-03 07:42:00,18.0,16.0,-100.00,SE,130,17.0,-999.0,92,-99.99,,,-99.99,,2013-04-03 12:42:00,
2013-04-03 07:52:00,18.0,16.0,-100.00,SE,134,14.0,-999.0,92,-99.99,,,-99.99,,2013-04-03 12:52:00,
2013-04-03 08:02:00,19.0,17.0,-100.00,SE,131,17.0,-999.0,91,-99.99,,,-99.99,,2013-04-03 13:02:00,
2013-04-03 08:12:00,19.0,17.0,-100.00,SE,128,15.0,-999.0,89,-99.99,,,-99.99,,2013-04-03 13:12:00,
2013-04-03 08:22:00,20.0,17.0,-100.00,SE,133,15.0,-999.0,88,-99.99,,,-99.99,,2013-04-03 13:22:00,
2013-04-03 08:32:00,20.0,17.0,-100.00,SE,135,18.0,-999.0,87,-99.99,,,-99.99,,2013-04-03 13:32:00,
2013-04-03 08:42:00,21.0,17.0,-100.00,SE,133,17.0,-999.0,86,-99.99,,,-99.99,,2013-04-03 13:42:00,
2013-04-03 08:52:00,22.0,18.0,-100.00,SE,140,21.0,-999.0,86,-99.99,,,-99.99,,2013-04-03 13:52:00,
2013-04-03 09:02:00,23.0,19.0,-100.00,SE,141,22.0,-999.0,85,-99.99,,,-99.99,,2013-04-03 14:02:00,
2013-04-03 09:12:00,23.0,19.0,-100.00,SE,138,23.0,-999.0,84,-99.99,,,-99.99,,2013-04-03 14:12:00,
2013-04-03 09:22:00,24.0,20.0,-100.00,SE,138,17.0,-999.0,83,-99.99,,,-99.99,,2013-04-03 14:22:00,
2013-04-03 09:32:00,25.0,20.0,-100.00,SE,125,18.0,-999.0,82,-99.99,,,-99.99,,2013-04-03 14:32:00,
2013-04-03 09:42:00,26.0,21.0,-100.00,SE,134,23.0,-999.0,81,-99.99,,,-99.99,,2013-04-03 14:42:00,
2013-04-03 09:52:00,26.0,21.0,-100.00,SE,146,20.0,-999.0,81,-99.99,,,-99.99,,2013-04-03 14:52:00,
2013-04-03 10:02:00,27.0,21.0,-100.00,SE,144,25.0,-999.0,79,-99.99,,,-99.99,,2013-04-03 15:02:00,
2013-04-03 10:12:00,27.0,22.0,-100.00,SSE,147,21.0,-999.0,79,-99.99,,,-99.99,,2013-04-03 15:12:00,
2013-04-03 10:23:00,27.0,22.0,-100.00,SE,141,22.0,-999.0,80,-99.99,,,-99.99,,2013-04-03 15:23:00,
2013-04-03 10:33:00,28.0,23.0,-100.00,SE,140,27.0,-999.0,80,-99.99,,,-99.99,,2013-04-03 15:33:00,
2013-04-03 10:42:00,28.0,23.0,-100.00,SE,143,26.0,-999.0,80,-99.99,,,-99.99,,2013-04-03 15:42:00,
2013-04-03 10:53:00,29.0,24.0,-100.00,SE,141,21.0,-999.0,81,-99.99,,,-99.99,,2013-04-03 15:53:00,
2013-04-03 11:03:00,29.0,24.0,-100.00,SSE,153,25.0,-999.0,81,-99.99,,,-99.99,,2013-04-03 16:03:00,
2013-04-03 11:13:00,30.0,24.0,-100.00,SE,142,23.0,-999.0,80,-99.99,,,-99.99,,2013-04-03 16:13:00,
2013-04-03 11:24:00,30.0,25.0,-100.00,SE,145,24.0,-999.0,80,-99.99,,,-99.99,,2013-04-03 16:24:00,
2013-04-03 11:32:00,31.0,25.0,-100.00,SE,146,22.0,-999.0,80,-99.99,,,-99.99,,2013-04-03 16:32:00,
2013-04-03 11:43:00,31.0,26.0,-100.00,SE,140,20.0,-999.0,81,-99.99,,,-99.99,,2013-04-03 16:43:00,
2013-04-03 11:52:00,32.0,26.0,-100.00,SE,145,24.0,-999.0,81,-99.99,,,-99.99,,2013-04-03 16:52:00,
2013-04-03 12:03:00,32.0,27.0,-100.00,SE,136,18.0,-999.0,80,-99.99,,,-99.99,,2013-04-03 17:03:00,
2013-04-03 12:13:00,33.0,27.0,-100.00,SSE,149,24.0,-999.0,80,-99.99,,,-99.99,,2013-04-03 17:13:00,
2013-04-03 12:23:00,33.0,28.0,-100.00,SE,143,20.0,-999.0,80,-99.99,,,-99.99,,2013-04-03 17:23:00,
2013-04-03 12:33:00,33.0,28.0,-100.00,SE,144,20.0,-999.0,80,-99.99,,,-99.99,,2013-04-03 17:33:00,
2013-04-03 12:46:00,33.0,28.0,-100.00,SSE,147,30.0,-999.0,80,-99.99,,,-99.99,,2013-04-03 17:46:00,
2013-04-03 12:53:00,34.0,28.0,-100.00,SE,144,29.0,-999.0,79,-99.99,,,-99.99,,2013-04-03 17:53:00,
2013-04-03 13:02:00,34.0,28.0,-100.00,SE,141,25.0,-999.0,79,-99.99,,,-99.99,,2013-04-03 18:02:00,
2013-04-03 13:13:00,35.0,29.0,-100.00,SSE,156,23.0,-999.0,79,-99.99,,,-99.99,,2013-04-03 18:13:00,
2013-04-03 13:22:00,35.0,29.0,-100.00,SSE,150,24.0,-999.0,79,-99.99,,,-99.99,,2013-04-03 18:22:00,
2013-04-03 13:33:00,35.0,29.0,-100.00,SSE,148,18.0,-999.0,79,-99.99,,,-99.99,,2013-04-03 18:33:00,
2013-04-03 13:43:00,35.0,30.0,-100.00,SE,135,27.0,-999.0,80,-99.99,,,-99.99,,2013-04-03 18:43:00,
2013-04-03 13:52:00,36.0,30.0,-100.00,SE,138,23.0,-999.0,79,-99.99,,,-99.99,,2013-04-03 18:52:00,
2013-04-03 14:03:00,36.0,30.0,-100.00,SE,137,21.0,-999.0,80,-99.99,,,-99.99,,2013-04-03 19:03:00,
2013-04-03 14:12:00,36.0,31.0,-100.00,SE,136,20.0,-999.0,81,-99.99,,,-99.99,,2013-04-03 19:12:00,
2013-04-03 14:22:00,37.0,31.0,-100.00,SSE,148,18.0,-999.0,79,-99.99,,,-99.99,,2013-04-03 19:22:00,
2013-04-03 14:32:00,38.0,30.0,-100.00,SSE,160,25.0,-999.0,73,-99.99,,,-99.99,,2013-04-03 19:32:00,
2013-04-03 14:42:00,38.0,31.0,-100.00,SSE,155,22.0,-999.0,74,-99.99,,,-99.99,,2013-04-03 19:42:00,
2013-04-03 14:52:00,38.0,31.0,-100.00,SSE,151,21.0,-999.0,74,-99.99,,,-99.99,,2013-04-03 19:52:00,
2013-04-03 15:02:00,38.0,31.0,-100.00,SSE,148,22.0,-999.0,74,-99.99,,,-99.99,,2013-04-03 20:02:00,
2013-04-03 15:12:00,39.0,31.0,-100.00,SSE,149,25.0,-999.0,74,-99.99,,,-99.99,,2013-04-03 20:12:00,
2013-04-03 15:23:00,39.0,31.0,-100.00,SSE,151,23.0,-999.0,73,-99.99,,,-99.99,,2013-04-03 20:23:00,
2013-04-03 15:32:00,39.0,32.0,-100.00,SE,145,29.0,-999.0,74,-99.99,,,-99.99,,2013-04-03 20:32:00,
2013-04-03 15:42:00,40.0,32.0,-100.00,SSE,150,30.0,-999.0,73,-99.99,,,-99.99,,2013-04-03 20:42:00,
2013-04-03 15:52:00,39.0,32.0,-100.00,SSE,153,23.0,-999.0,75,-99.99,,,-99.99,,2013-04-03 20:52:00,
2013-04-03 16:02:00,40.0,32.0,-100.00,SSE,149,26.0,-999.0,73,-99.99,,,-99.99,,2013-04-03 21:02:00,
2013-04-03 16:12:00,40.0,32.0,-100.00,SSE,147,25.0,-999.0,73,-99.99,,,-99.99,,2013-04-03 21:12:00,
2013-04-03 16:22:00,41.0,33.0,-100.00,SSE,149,23.0,-999.0,73,-99.99,,,-99.99,,2013-04-03 21:22:00,
2013-04-03 16:33:00,41.0,33.0,-100.00,SSE,148,23.0,-999.0,74,-99.99,,,-99.99,,2013-04-03 21:33:00,
2013-04-03 16:42:00,41.0,33.0,-100.00,SE,142,16.0,-999.0,74,-99.99,,,-99.99,,2013-04-03 21:42:00,
2013-04-03 16:52:00,41.0,33.0,-100.00,SSE,147,21.0,-999.0,73,-99.99,,,-99.99,,2013-04-03 21:52:00,
2013-04-03 17:02:00,41.0,33.0,-100.00,SSE,149,20.0,-999.0,73,-99.99,,,-99.99,,2013-04-03 22:02:00,
2013-04-03 17:12:00,41.0,33.0,-100.00,SE,139,18.0,-999.0,74,-99.99,,,-99.99,,2013-04-03 22:12:00,
2013-04-03 17:22:00,40.0,34.0,-100.00,SE,144,18.0,-999.0,77,-99.99,,,-99.99,,2013-04-03 22:22:00,
2013-04-03 17:32:00,40.0,34.0,-100.00,SE,143,19.0,-999.0,77,-99.99,,,-99.99,,2013-04-03 22:32:00,
2013-04-03 17:42:00,41.0,34.0,-100.00,SE,142,20.0,-999.0,77,-99.99,,,-99.99,,2013-04-03 22:42:00,
2013-04-03 17:52:00,41.0,34.0,-100.00,SE,142,19.0,-999.0,78,-99.99,,,-99.99,,2013-04-03 22:52:00,
2013-04-03 18:02:00,41.0,35.0,-100.00,SE,140,22.0,-999.0,78,-99.99,,,-99.99,,2013-04-03 23:02:00,
2013-04-03 18:12:00,41.0,35.0,-100.00,SE,144,19.0,-999.0,78,-99.99,,,-99.99,,2013-04-03 23:12:00,
2013-04-03 18:22:00,41.0,35.0,-100.00,SE,140,17.0,-999.0,78,-99.99,,,-99.99,,2013-04-03 23:22:00,
2013-04-03 18:32:00,40.0,35.0,-100.00,SSE,150,17.0,-999.0,83,-99.99,,,-99.99,,2013-04-03 23:32:00,
2013-04-03 18:42:00,40.0,35.0,-100.00,SSE,150,17.0,-999.0,83,-99.99,,,-99.99,,2013-04-03 23:42:00,
2013-04-03 18:53:00,40.0,35.0,-100.00,SSE,149,19.0,-999.0,83,-99.99,,,-99.99,,2013-04-03 23:53:00,
2013-04-03 19:03:00,40.0,36.0,-100.00,SE,145,16.0,-999.0,84,-99.99,,,-99.99,,2013-04-04 00:03:00,
2013-04-03 19:12:00,40.0,35.0,-100.00,SE,146,14.0,-999.0,84,-99.99,,,-99.99,,2013-04-04 00:12:00,
2013-04-03 19:22:00,39.0,35.0,-100.00,SE,145,15.0,-999.0,85,-99.99,,,-99.99,,2013-04-04 00:22:00,
2013-04-03 19:32:00,38.0,35.0,-100.00,SE,145,20.0,-999.0,87,-99.99,,,-99.99,,2013-04-04 00:32:00,
2013-04-03 19:43:00,39.0,36.0,-100.00,SE,135,11.0,-999.0,87,-99.99,,,-99.99,,2013-04-04 00:43:00,
2013-04-03 19:52:00,40.0,35.0,-100.00,SE,130,8.0,-999.0,83,-99.99,,,-99.99,,2013-04-04 00:52:00,
2013-04-03 20:02:00,39.0,35.0,-100.00,SE,140,16.0,-999.0,85,-99.99,,,-99.99,,2013-04-04 01:02:00,
2013-04-03 20:12:00,39.0,35.0,-100.00,SE,144,18.0,-999.0,86,-99.99,,,-99.99,,2013-04-04 01:12:00,
2013-04-03 20:22:00,39.0,35.0,-100.00,SE,145,14.0,-999.0,86,-99.99,,,-99.99,,2013-04-04 01:22:00,
2013-04-03 20:32:00,38.0,35.0,-100.00,SSE,149,17.0,-999.0,87,-99.99,,,-99.99,,2013-04-04 01:32:00,
2013-04-03 20:43:00,38.0,35.0,-100.00,SSE,149,12.0,-999.0,88,-99.99,,,-99.99,,2013-04-04 01:43:00,
2013-04-03 20:52:00,38.0,35.0,-100.00,SSE,151,14.0,-999.0,88,-99.99,,,-99.99,,2013-04-04 01:52:00,
2013-04-03 21:02:00,39.0,35.0,-100.00,SSE,157,15.0,-999.0,87,-99.99,,,-99.99,,2013-04-04 02:02:00,
2013-04-03 21:12:00,39.0,35.0,-100.00,SSE,161,17.0,-999.0,85,-99.99,,,-99.99,,2013-04-04 02:12:00,
2013-04-03 21:22:00,40.0,35.0,-100.00,South,172,15.0,-999.0,82,-99.99,,,-99.99,,2013-04-04 02:22:00,
2013-04-03 21:32:00,44.0,34.0,-100.00,WNW,286,17.0,-999.0,69,-99.99,,,-99.99,,2013-04-04 02:32:00,
2013-04-03 21:42:00,44.0,34.0,-100.00,WNW,286,17.0,-999.0,69,-99.99,,,-99.99,,2013-04-04 02:42:00,
2013-04-03 21:52:00,44.0,34.0,-100.00,WNW,286,17.0,-999.0,69,-99.99,,,-99.99,,2013-04-04 02:52:00,
2013-04-03 22:02:00,42.0,34.0,-100.00,NW,313,10.0,-999.0,72,-99.99,,,-99.99,,2013-04-04 03:02:00,
2013-04-03 22:12:00,40.0,34.0,-100.00,WNW,302,11.0,-999.0,76,-99.99,,,-99.99,,2013-04-04 03:12:00,
2013-04-03 22:22:00,40.0,34.0,-100.00,WNW,295,14.0,-999.0,78,-99.99,,,-99.99,,2013-04-04 03:22:00,
2013-04-03 22:33:00,39.0,34.0,-100.00,WNW,288,11.0,-999.0,81,-99.99,,,-99.99,,2013-04-04 03:33:00,
2013-04-03 22:53:00,38.0,34.0,-100.00,WNW,294,14.0,-999.0,85,-99.99,,,-99.99,,2013-04-04 03:53:00,
2013-04-03 23:03:00,37.0,34.0,-100.00,WNW,290,12.0,-999.0,88,-99.99,,,-99.99,,2013-04-04 04:03:00,
2013-04-03 23:12:00,37.0,34.0,-100.00,WNW,289,14.0,-999.0,88,-99.99,,,-99.99,,2013-04-04 04:12:00,
2013-04-03 23:23:00,36.0,33.0,-100.00,WNW,293,14.0,-999.0,90,-99.99,,,-99.99,,2013-04-04 04:23:00,
2013-04-03 23:33:00,36.0,34.0,-100.00,WNW,294,15.0,-999.0,90,-99.99,,,-99.99,,2013-04-04 04:33:00,
2013-04-03 23:43:00,35.0,33.0,-100.00,NW,311,18.0,-999.0,89,-99.99,,,-99.99,,2013-04-04 04:43:00,
2013-04-03 23:52:00,35.0,33.0,-100.00,WNW,291,17.0,-999.0,91,-99.99,,,-99.99,,2013-04-04 04:52:00,